[[{"header":{"parameterUnit":"m.s-1","parameterCategory":1,"la1":30.2991,"la2":30.254,"lo1":-89.0895,"lo2":-89.0444,"dy":0.0017,"dx":0.0017,"nx":28,"ny":28,"refTime":"2024-04-01T21:00:00:Z","depth":0,"parameterNumber":2,"parameterNumberName":"U-component_of_WINDS"},"data":[0,0,0,0,0,0,0,0,0,0,0,0,0,0,0,0,0,0,0,0,0,0,0,0,0,0,0,0,0,0,0,0,0,0,0,0,0,0,0,0,0,0,0,0,0,0,0,0,0,0,0,0,0,0,0,0,0,0,-2.0626,-2.0627,0,-2.0696,-2.0697,-2.0698,-2.0694,-2.0693,-2.0692,-2.0691,-2.0762,-2.0765,-2.0768,0,0,0,0,0,0,0,0,0,0,0,0,0,-2.0487,-2.049,-2.0626,-2.0627,-2.0628,-2.0696,-2.0697,-2.0698,-2.0695,-2.0693,-2.0692,-2.0691,-2.0761,-2.0765,-2.0768,0,0,0,0,0,0,0,0,0,0,0,0,0,-2.0551,-2.049,-2.0626,-2.0634,-2.0636,-2.0696,-2.0697,-2.0698,-2.0695,-2.0693,-2.0692,-2.069,-2.076,-2.0764,-2.0769,-2.0825,0,0,-2.0782,-2.0783,0,0,0,0,0,0,0,0,-2.0548,-2.0556,-2.0632,-2.0634,-2.0635,-2.0685,-2.0674,-2.0741,-2.0695,-2.0672,-2.0691,-2.069,-2.0738,-2.0744,-2.076,-2.0828,-2.0831,-2.0782,-2.0784,-2.0786,-2.0787,0,0,0,0,0,0,0,-2.0543,-2.0553,-2.0654,-2.0633,-2.0635,-2.0634,-2.0641,-2.0687,-2.0713,-2.0674,-2.0674,-2.0683,-2.0738,-2.0756,-2.0762,-2.0832,-2.0782,-2.0786,-2.0788,-2.079,-2.095,-2.0951,0,0,0,0,0,0,-2.0537,-2.055,-2.0651,-2.0656,-2.0587,-2.0638,-2.0646,-2.0671,-2.0712,-2.0717,-2.0684,-2.0682,-2.075,-2.0757,-2.0764,-2.0832,-2.0786,-2.079,-2.0793,-2.0948,-2.095,-2.0952,0,0,0,0,0,0,-2.0534,-2.0546,-2.0649,-2.0603,-2.0616,-2.0642,-2.0669,-2.0673,-2.069,-2.0719,-2.0724,-2.0697,-2.0749,-2.0758,-2.081,-2.0835,-2.0792,-2.0796,-2.0946,-2.0949,-2.0951,-2.0969,0,0,0,0,0,0,-2.053,-2.0545,-2.0567,-2.0603,-2.0618,-2.0693,-2.0671,-2.0675,-2.0698,-2.0696,-2.0733,-2.0738,-2.0748,-2.0804,-2.0814,-2.084,-2.0799,-2.0944,-2.0947,-2.095,-2.0966,-2.0972,-2.0976,0,0,0,0,0,-2.0525,-2.0569,-2.0568,-2.058,-2.0646,-2.0695,-2.0703,-2.0715,-2.07,-2.0722,-2.0741,-2.0737,-2.0831,-2.0809,-2.0821,-2.0848,-2.0942,-2.0946,-2.095,-2.0964,-2.097,-2.0976,0,0,0,0,0,0,-2.0534,-2.0574,-2.0573,-2.063,-2.0659,-2.0694,-2.0722,-2.0722,-2.0755,-2.0752,-2.0765,-2.0773,-2.0824,-2.0842,-2.0817,-2.0904,-2.0885,-2.0891,-2.0891,-2.0898,-2.0903,-2.0897,-2.0803,0,0,0,0,0,-2.0543,-2.0579,-2.0612,-2.0659,-2.0674,-2.0695,-2.0717,-2.0724,-2.0754,-2.0766,-2.0788,-2.0817,-2.0853,-2.0877,-2.0912,-2.0969,-2.0977,-2.0994,-2.0999,-2.1003,-2.1008,-2.1039,-2.1046,-2.0964,-2.0964,-2.0964,0,0,-2.0561,-2.0587,-2.0609,-2.0662,-2.0685,-2.0722,-2.0706,-2.0745,-2.0773,-2.0772,-2.0821,-2.0839,-2.0873,-2.0927,-2.0952,-2.0943,-2.1033,-2.1008,-2.1011,-2.1014,-2.1044,-2.1051,-2.1058,-2.0967,-2.0967,-2.0966,0,0,-2.0612,-2.0636,-2.0678,-2.0702,-2.0737,-2.0751,-2.0761,-2.0797,-2.0808,-2.0859,-2.0859,-2.0892,-2.0954,-2.0977,-2.0997,-2.1059,-2.1056,-2.107,-2.1096,-2.1126,-2.1133,-2.1139,-2.1159,-2.1167,-2.1075,-2.1075,-2.1075,0,-2.063,-2.0686,-2.0699,-2.0739,-2.0762,-2.0764,-2.0805,-2.0828,-2.0873,-2.0888,-2.0878,-2.0956,-2.0978,-2.1038,-2.1053,-2.107,-2.1081,-2.1065,-2.1131,-2.1137,-2.1142,-2.1162,-2.117,-2.1077,-2.1077,-2.1076,-2.1076,0,-2.0705,-2.0744,-2.0773,-2.0817,-2.0843,-2.0884,-2.0903,-2.0928,-2.0933,-2.0948,-2.0999,-2.1027,-2.1067,-2.1082,-2.1087,-2.1143,-2.1136,-2.1128,-2.1108,-2.1151,-2.117,-2.1178,-2.1079,-2.1078,-2.1078,-2.1077,0,0,-2.0762,-2.0813,-2.0824,-2.0843,-2.0883,-2.0913,-2.0955,-2.0994,-2.1015,-2.1047,-2.108,-2.1134,-2.1127,-2.115,-2.1158,-2.1184,-2.123,-2.1173,-2.1174,-2.1181,-2.1292,-2.1296,-2.1304,-2.1229,-2.1231,-2.1232,-2.1288,0,-2.0816,-2.0889,-2.0902,-2.0965,-2.1001,-2.1004,-2.1039,-2.1068,-2.1084,-2.1116,-2.1133,-2.117,-2.1159,-2.1173,-2.12,-2.1219,-2.1252,-2.1215,-2.126,-2.1261,-2.1249,-2.1314,-2.1319,-2.137,-2.1296,-2.1297,-2.1298,0,-2.0889,-2.0922,-2.0989,-2.1024,-2.1039,-2.1071,-2.1108,-2.114,-2.1172,-2.1182,-2.1208,-2.1213,-2.1255,-2.1235,-2.1293,-2.1268,-2.1287,-2.1299,-2.1302,-2.1305,-2.1281,-2.1317,-2.1387,-2.1394,-2.131,-2.1309,-2.1308,0,-2.0921,-2.0983,-2.1031,-2.1048,-2.1091,-2.1113,-2.1132,-2.1162,-2.1185,-2.1219,-2.1234,-2.1271,-2.1291,-2.132,-2.1335,-2.1319,-2.1392,-2.1373,-2.14,-2.14,-2.1413,-2.1412,-2.1485,-2.1429,-2.1429,-2.1429,-2.1429,0,-2.0979,-2.1019,-2.1046,-2.1075,-2.1121,-2.1136,-2.118,-2.1199,-2.1226,-2.1259,-2.1264,-2.1295,-2.1314,-2.1347,-2.1359,-2.1404,-2.1414,-2.1422,-2.1425,-2.1421,-2.1419,-2.1432,-2.1428,-2.1431,-2.1431,-2.143,-2.143,0,-2.1022,-2.1042,-2.1094,-2.1131,-2.1141,-2.1172,-2.1203,-2.1232,-2.1248,-2.1289,-2.13,-2.1325,-2.1365,-2.1383,-2.1432,-2.144,-2.1491,-2.1492,-2.148,-2.1481,-2.1506,-2.1503,-2.1589,-2.16,-2.1538,-2.1539,-2.1539,0,-2.1057,-2.1088,-2.1128,-2.115,-2.117,-2.1206,-2.123,-2.1247,-2.1271,-2.131,-2.1334,-2.1373,-2.1406,-2.1468,-2.1491,-2.1528,-2.1529,-2.1557,-2.1534,-2.1529,-2.1527,-2.1524,-2.1527,-2.156,-2.156,-2.1561,-2.1561,0,-2.1116,-2.1124,-2.1158,-2.1196,-2.1225,-2.1255,-2.1285,-2.1303,-2.1325,-2.1352,-2.1392,-2.1418,-2.1468,-2.1506,-2.1545,-2.1564,-2.1566,-2.1568,-2.1576,-2.1571,-2.1562,-2.1566,-2.1489,-2.1566,-2.1565,-2.1565,-2.1565,-2.1564,-2.1155,-2.1182,-2.1215,-2.1252,-2.1277,-2.1305,-2.1333,-2.1354,-2.1388,-2.1429,-2.1438,-2.148,-2.1512,-2.1565,-2.1585,-2.1619,-2.1612,-2.1624,-2.1627,-2.1629,-2.1629,-2.1559,-2.1626,-2.1626,-2.1626,-2.1626,-2.1626,0,-2.1212,-2.1233,-2.1268,-2.131,-2.134,-2.1341,-2.1374,-2.1398,-2.1436,-2.1466,-2.1498,-2.1544,-2.1582,-2.1608,-2.1647,-2.1668,-2.167,-2.1678,-2.1675,-2.1679,-2.1634,-2.1622,-2.1676,-2.1676,-2.1676,-2.1676,-2.1676,-2.1676,-2.1245,-2.1292,-2.1304,-2.1363,-2.1384,-2.1426,-2.1444,-2.147,-2.1494,-2.1545,-2.1577,-2.1594,-2.1623,-2.1663,-2.1698,-2.1705,-2.1718,-2.1726,-2.1732,-2.1688,-2.1683,-2.1678,-2.1667,-2.1729,-2.1729,-2.1775,-2.1775,-2.1776]},{"header":{"parameterUnit":"m.s-1","parameterCategory":1,"la1":30.2991,"la2":30.254,"lo1":-89.0895,"lo2":-89.0444,"dy":0.0017,"dx":0.0017,"nx":28,"ny":28,"refTime":"2024-04-01T21:00:00:Z","depth":0,"parameterNumber":3,"parameterNumberName":"V-component_of_WINDS"},"data":[0,0,0,0,0,0,0,0,0,0,0,0,0,0,0,0,0,0,0,0,0,0,0,0,0,0,0,0,0,0,0,0,0,0,0,0,0,0,0,0,0,0,0,0,0,0,0,0,0,0,0,0,0,0,0,0,0,0,3.9611,3.961,0,3.9585,3.9585,3.9585,3.9607,3.9608,3.9609,3.9609,3.958,3.9578,3.9576,0,0,0,0,0,0,0,0,0,0,0,0,0,3.9677,3.9676,3.9611,3.961,3.961,3.9585,3.9585,3.9585,3.9607,3.9608,3.9609,3.961,3.958,3.9578,3.9576,0,0,0,0,0,0,0,0,0,0,0,0,0,3.965,3.9676,3.9611,3.9618,3.9619,3.9585,3.9585,3.9585,3.9606,3.9608,3.9609,3.961,3.9581,3.9578,3.9576,3.9533,0,0,3.9568,3.9567,0,0,0,0,0,0,0,0,3.9651,3.9647,3.9617,3.9618,3.9618,3.9601,3.9598,3.9567,3.9606,3.9611,3.961,3.9611,3.9585,3.9583,3.9575,3.9532,3.953,3.9568,3.9567,3.9566,3.9565,0,0,0,0,0,0,0,3.9653,3.9648,3.9601,3.9617,3.9617,3.9623,3.962,3.9592,3.959,3.9611,3.9612,3.9609,3.9586,3.9577,3.9574,3.953,3.9568,3.9566,3.9565,3.9564,3.9455,3.9453,0,0,0,0,0,0,3.9655,3.965,3.9601,3.96,3.9639,3.962,3.9618,3.9605,3.9591,3.959,3.9608,3.961,3.958,3.9577,3.9573,3.9525,3.9566,3.9563,3.9562,3.9456,3.9454,3.9453,0,0,0,0,0,0,3.9656,3.965,3.9602,3.9625,3.962,3.9618,3.9603,3.9604,3.9595,3.9589,3.9589,3.9599,3.9581,3.9577,3.9544,3.9524,3.9562,3.956,3.9458,3.9456,3.9454,3.9426,0,0,0,0,0,0,3.9658,3.965,3.9634,3.9625,3.9618,3.9574,3.9602,3.9602,3.9591,3.9594,3.9581,3.958,3.9582,3.9548,3.9542,3.9521,3.9558,3.946,3.9457,3.9454,3.9428,3.9423,3.9418,0,0,0,0,0,3.966,3.9625,3.9633,3.9627,3.9598,3.9572,3.9569,3.9573,3.9589,3.9573,3.957,3.958,3.9527,3.9544,3.9537,3.9516,3.9461,3.9458,3.9455,3.9431,3.9424,3.9418,0,0,0,0,0,0,3.9629,3.9624,3.9632,3.9594,3.9584,3.9576,3.9555,3.9565,3.9549,3.9552,3.9557,3.9554,3.9521,3.9515,3.9534,3.9476,3.9497,3.9492,3.9481,3.9474,3.9469,3.9471,3.9556,0,0,0,0,0,3.9619,3.9599,3.9595,3.9561,3.9556,3.9557,3.9546,3.9551,3.954,3.9535,3.9529,3.9518,3.9499,3.9486,3.9468,3.9428,3.9427,3.941,3.9405,3.9401,3.9397,3.9378,3.9372,3.9443,3.9443,3.9443,0,0,3.9595,3.959,3.9576,3.9555,3.9548,3.9528,3.9553,3.953,3.9515,3.9531,3.9501,3.9497,3.9485,3.9449,3.9433,3.9443,3.9377,3.9397,3.9393,3.9392,3.9374,3.9368,3.9362,3.944,3.9441,3.9441,0,0,3.9542,3.9536,3.9509,3.9502,3.9492,3.9493,3.9487,3.9479,3.9478,3.9448,3.9461,3.9444,3.941,3.9402,3.9393,3.9343,3.9353,3.9337,3.931,3.9292,3.9286,3.9281,3.9265,3.9259,3.9332,3.9332,3.9332,0,3.9514,3.9485,3.9493,3.947,3.9462,3.9478,3.9452,3.9444,3.9428,3.9422,3.9434,3.9395,3.9387,3.9352,3.934,3.9332,3.9326,3.9338,3.9286,3.9282,3.9277,3.9262,3.9256,3.9331,3.9331,3.9331,3.9331,0,3.9452,3.9432,3.9411,3.9399,3.9387,3.9362,3.9367,3.9355,3.9362,3.9362,3.9334,3.9326,3.9309,3.93,3.9305,3.9266,3.9274,3.9286,3.9307,3.9269,3.9254,3.9248,3.9328,3.9329,3.9329,3.933,0,0,3.9376,3.9372,3.9364,3.936,3.9353,3.9337,3.9314,3.9299,3.929,3.9279,3.9261,3.9234,3.9247,3.9237,3.9242,3.9226,3.919,3.9241,3.9241,3.9233,3.915,3.9141,3.9134,3.9197,3.9196,3.9195,3.9151,0,3.9325,3.9287,3.9296,3.9258,3.9241,3.9259,3.9239,3.9232,3.9233,3.9219,3.9219,3.9201,3.9218,3.9213,3.9198,3.9197,3.9173,3.9201,3.918,3.918,3.9184,3.9126,3.9116,3.9075,3.9146,3.9145,3.9144,0,3.926,3.925,3.9212,3.921,3.9204,3.9186,3.9175,3.9161,3.9154,3.9156,3.9148,3.9157,3.9135,3.9157,3.9128,3.9147,3.9139,3.9138,3.9137,3.9135,3.916,3.9125,3.9062,3.9057,3.9135,3.9136,3.9136,0,3.9212,3.9188,3.9164,3.9159,3.9156,3.9144,3.9142,3.9137,3.9129,3.9119,3.9115,3.9101,3.9094,3.9084,3.909,3.9105,3.9061,3.9083,3.9063,3.9063,3.9052,3.9053,3.8989,3.9046,3.9046,3.9046,3.9046,0,3.9154,3.913,3.9143,3.9127,3.9102,3.9112,3.9087,3.9087,3.9083,3.9069,3.9082,3.9068,3.9076,3.9063,3.9067,3.9044,3.904,3.9042,3.9043,3.9041,3.9041,3.9036,3.904,3.9045,3.9045,3.9045,3.9046,0,3.9095,3.9102,3.9077,3.9078,3.9078,3.9059,3.906,3.9046,3.9049,3.9031,3.9027,3.9032,3.9017,3.9023,3.9006,3.9009,3.898,3.8985,3.8983,3.8985,3.8965,3.8967,3.8896,3.8889,3.8949,3.8949,3.8948,0,3.9058,3.9041,3.9042,3.9034,3.9032,3.9019,3.9012,3.9022,3.9014,3.9008,3.8995,3.8983,3.8973,3.895,3.8951,3.894,3.8945,3.8921,3.8943,3.8942,3.8946,3.8948,3.8947,3.8916,3.8916,3.8915,3.8915,0,3.8993,3.8999,3.8989,3.8981,3.8973,3.8966,3.8961,3.8954,3.8964,3.8955,3.8942,3.8934,3.892,3.8908,3.8898,3.8896,3.8908,3.8908,3.8903,3.8901,3.8901,3.8903,3.8972,3.8909,3.891,3.891,3.891,3.8911,3.8945,3.8933,3.8932,3.8921,3.8919,3.8915,3.8904,3.8907,3.8897,3.8887,3.8894,3.8879,3.8876,3.8865,3.8862,3.8851,3.886,3.8852,3.885,3.8849,3.8847,3.8903,3.8849,3.8849,3.8849,3.8849,3.8849,0,3.8883,3.8884,3.8875,3.8869,3.8861,3.8875,3.8871,3.8863,3.885,3.8847,3.8839,3.8825,3.8815,3.8817,3.8808,3.8798,3.8803,3.8796,3.8797,3.8797,3.8838,3.8844,3.8792,3.8792,3.8792,3.8792,3.8792,3.8792,3.8849,3.8829,3.8835,3.8815,3.8816,3.8804,3.8801,3.8797,3.8796,3.8781,3.8773,3.8775,3.8775,3.8766,3.8758,3.8759,3.8755,3.8746,3.8749,3.8787,3.8793,3.8799,3.8804,3.8744,3.8744,3.8708,3.8708,3.8708]}]]